When you browse on this site, cookies collect data to enhance your experience and personalize the content and advertising you see.
Visit our Privacy Policy to learn more. By continuing to use the site, you agree to this use of cookies and data.
  • în România
  • Lista ţărilor
  • Pe 7 zile
  • Temperatura apei
  • Hartă satelitară
  • Meteo pe hartă
  • Widget-uri
  • user-avatar
    Intrare

    Meteo pe oră la Nagutskoe

    Astăzi, 20 Februarie, Miercuri

    Timp Temperatura Precipitaţii Vânt Presiune Umiditate
    00:00 -3°C° 0 mm 2 m/s 729 mmHg 59%
    01:00 -3°C° 0 mm 2 m/s 728 mmHg 60%
    02:00 -4°C° 0 mm 2 m/s 728 mmHg 60%
    03:00 -5°C° 0 mm 3 m/s 727 mmHg 59%
    04:00 -5°C° 0 mm 3 m/s 727 mmHg 60%
    05:00 -4°C° 0 mm 2 m/s 727 mmHg 60%
    06:00 -4°C° 0 mm 2 m/s 727 mmHg 60%
    07:00 -4°C° 0 mm 2 m/s 726 mmHg 57%
    08:00 -3°C° 0 mm 2 m/s 726 mmHg 53%
    09:00 -2°C° 0 mm 2 m/s 726 mmHg 48%
    10:00 +1°C° 0 mm 2 m/s 726 mmHg 43%
    11:00 +3°C° 0 mm 2 m/s 725 mmHg 38%
    12:00 +3°C° 0 mm 3 m/s 725 mmHg 34%
    13:00 +4°C° 0 mm 3 m/s 725 mmHg 33%
    14:00 +5°C° 0 mm 2 m/s 725 mmHg 33%
    15:00 +6°C° 0 mm 2 m/s 724 mmHg 32%
    16:00 +5°C° 0 mm 2 m/s 724 mmHg 37%
    17:00 +3°C° 0 mm 2 m/s 724 mmHg 41%
    18:00 +2°C° 0 mm 2 m/s 724 mmHg 46%
    19:00 +1°C° 0 mm 2 m/s 724 mmHg 48%
    20:00 +2°C° 0 mm 1 m/s 724 mmHg 50%
    21:00 +1°C° 0 mm 1 m/s 724 mmHg 52%
    22:00 +1°C° 0 mm 1 m/s 724 mmHg 51%
    23:00 0°C° 0 mm 0 m/s 724 mmHg 51%

    Mâine, 21 Februarie, Joi

    Timp Temperatura Precipitaţii Vânt Presiune Umiditate
    00:00 0°C° 0 mm 0 m/s 724 mmHg 51%
    01:00 0°C° 0 mm 0 m/s 723 mmHg 50%
    02:00 0°C° 0 mm 0 m/s 723 mmHg 50%
    03:00 0°C° 0 mm 0 m/s 723 mmHg 49%
    04:00 0°C° 0 mm 0 m/s 723 mmHg 49%
    05:00 0°C° 0 mm 0 m/s 723 mmHg 48%
    06:00 0°C° 0 mm 0 m/s 723 mmHg 48%
    07:00 +1°C° 0 mm 0 m/s 723 mmHg 44%
    08:00 +2°C° 0 mm 0 m/s 723 mmHg 41%
    09:00 +3°C° 0 mm 0 m/s 723 mmHg 37%
    10:00 +6°C° 0 mm 1 m/s 723 mmHg 34%
    11:00 +7°C° 0 mm 1 m/s 722 mmHg 30%
    12:00 +8°C° 0 mm 2 m/s 722 mmHg 26%
    13:00 +9°C° 0 mm 1 m/s 722 mmHg 25%
    14:00 +10°C° 0 mm 1 m/s 721 mmHg 25%
    15:00 +11°C° 0 mm 1 m/s 721 mmHg 25%
    16:00 +10°C° 0 mm 1 m/s 721 mmHg 29%
    17:00 +9°C° 0 mm 1 m/s 721 mmHg 33%
    18:00 +7°C° 0 mm 0 m/s 721 mmHg 38%
    19:00 +6°C° 0 mm 0 m/s 721 mmHg 40%
    20:00 +6°C° 0 mm 0 m/s 721 mmHg 42%
    21:00 +6°C° 0 mm 1 m/s 721 mmHg 44%
    22:00 +5°C° 0 mm 2 m/s 721 mmHg 54%
    23:00 +3°C° 0 mm 3 m/s 721 mmHg 64%

    Poimâine, 22 Februarie, Vineri

    Timp Temperatura Precipitaţii Vânt Presiune Umiditate
    00:00 +3°C° 0 mm 4 m/s 721 mmHg 73%
    01:00 +2°C° 0.1 mm 5 m/s 721 mmHg 74%
    02:00 +1°C° 0.1 mm 6 m/s 722 mmHg 75%
    03:00 0°C° 0.1 mm 7 m/s 722 mmHg 76%
    04:00 -1°C° 0.1 mm 7 m/s 722 mmHg 73%
    05:00 -2°C° 0.1 mm 8 m/s 723 mmHg 71%
    06:00 -2°C° 0.1 mm 8 m/s 723 mmHg 69%
    07:00 -4°C° 0 mm 8 m/s 723 mmHg 66%
    08:00 -3°C° 0 mm 7 m/s 723 mmHg 64%
    09:00 -3°C° 0 mm 7 m/s 724 mmHg 62%
    10:00 -2°C° 0 mm 7 m/s 724 mmHg 58%
    11:00 0°C° 0 mm 7 m/s 723 mmHg 54%
    12:00 +2°C° 0 mm 6 m/s 723 mmHg 50%
    13:00 +2°C° 0 mm 6 m/s 723 mmHg 49%
    14:00 +3°C° 0 mm 5 m/s 723 mmHg 47%
    15:00 +4°C° 0 mm 4 m/s 723 mmHg 46%
    16:00 +4°C° 0 mm 3 m/s 723 mmHg 49%
    17:00 +4°C° 0 mm 2 m/s 723 mmHg 53%
    18:00 +5°C° 0 mm 1 m/s 723 mmHg 57%
    19:00 +4°C° 0 mm 1 m/s 723 mmHg 61%
    20:00 +3°C° 0 mm 2 m/s 723 mmHg 65%
    21:00 +1°C° 0 mm 3 m/s 723 mmHg 69%
    22:00 +1°C° 0 mm 3 m/s 723 mmHg 73%
    23:00 -1°C° 0 mm 4 m/s 722 mmHg 77%

    23 Februarie, Sâmbătă

    Timp Temperatura Precipitaţii Vânt Presiune Umiditate
    00:00 -1°C° 0 mm 4 m/s 722 mmHg 81%
    01:00 -1°C° 0 mm 4 m/s 722 mmHg 81%
    02:00 -1°C° 0 mm 4 m/s 722 mmHg 81%
    03:00 -2°C° 0 mm 4 m/s 722 mmHg 80%
    04:00 -2°C° 0 mm 4 m/s 722 mmHg 83%
    05:00 -2°C° 0 mm 4 m/s 722 mmHg 85%
    06:00 -2°C° 0 mm 3 m/s 722 mmHg 88%
    07:00 -2°C° 0 mm 4 m/s 722 mmHg 84%
    08:00 -1°C° 0 mm 4 m/s 722 mmHg 81%
    09:00 0°C° 0 mm 4 m/s 722 mmHg 77%
    10:00 +1°C° 0 mm 4 m/s 722 mmHg 71%
    11:00 +3°C° 0 mm 4 m/s 722 mmHg 66%
    12:00 +5°C° 0 mm 4 m/s 722 mmHg 61%
    13:00 +5°C° 0 mm 4 m/s 722 mmHg 59%
    14:00 +6°C° 0 mm 4 m/s 722 mmHg 57%
    15:00 +6°C° 0 mm 4 m/s 722 mmHg 55%
    16:00 +7°C° 0 mm 3 m/s 723 mmHg 60%
    17:00 +5°C° 0 mm 3 m/s 723 mmHg 65%
    18:00 +5°C° 0 mm 2 m/s 723 mmHg 69%
    19:00 +5°C° 0 mm 2 m/s 723 mmHg 72%
    20:00 +4°C° 0 mm 2 m/s 724 mmHg 75%
    21:00 +5°C° 0 mm 1 m/s 724 mmHg 78%
    22:00 +4°C° 0 mm 1 m/s 724 mmHg 81%
    23:00 +4°C° 0 mm 1 m/s 724 mmHg 84%

    24 Februarie, Duminică

    Timp Temperatura Precipitaţii Vânt Presiune Umiditate
    00:00 +3°C° 0 mm 1 m/s 724 mmHg 86%
    01:00 +3°C° 0 mm 1 m/s 725 mmHg 89%
    02:00 +3°C° 0 mm 1 m/s 725 mmHg 91%
    03:00 +2°C° 0 mm 1 m/s 725 mmHg 93%
    04:00 +2°C° 0 mm 1 m/s 725 mmHg 94%
    05:00 +2°C° 0 mm 1 m/s 725 mmHg 94%
    06:00 +2°C° 0 mm 1 m/s 725 mmHg 95%
    07:00 +2°C° 0 mm 1 m/s 725 mmHg 93%
    08:00 +3°C° 0 mm 1 m/s 726 mmHg 90%
    09:00 +3°C° 0 mm 1 m/s 726 mmHg 88%
    10:00 +4°C° 0 mm 1 m/s 726 mmHg 82%
    11:00 +5°C° 0 mm 1 m/s 726 mmHg 76%
    12:00 +7°C° 0 mm 1 m/s 726 mmHg 69%
    13:00 +6°C° 0 mm 2 m/s 726 mmHg 66%
    14:00 +7°C° 0 mm 2 m/s 726 mmHg 62%
    15:00 +8°C° 0 mm 2 m/s 726 mmHg 58%
    16:00 +7°C° 0 mm 2 m/s 726 mmHg 62%
    17:00 +6°C° 0 mm 2 m/s 726 mmHg 66%
    18:00 +6°C° 0 mm 2 m/s 727 mmHg 70%
    19:00 +6°C° 0 mm 1 m/s 727 mmHg 73%
    20:00 +6°C° 0 mm 1 m/s 727 mmHg 77%
    21:00 +5°C° 0 mm 1 m/s 727 mmHg 80%
    22:00 +5°C° 0 mm 1 m/s 727 mmHg 83%
    23:00 +4°C° 0 mm 1 m/s 727 mmHg 86%

    25 Februarie, Luni

    Timp Temperatura Precipitaţii Vânt Presiune Umiditate
    00:00 +4°C° 0 mm 1 m/s 727 mmHg 89%
    01:00 +3°C° 0 mm 1 m/s 727 mmHg 91%
    02:00 +3°C° 0 mm 1 m/s 726 mmHg 93%
    03:00 +3°C° 0 mm 1 m/s 726 mmHg 95%
    04:00 +3°C° 0 mm 1 m/s 726 mmHg 94%
    05:00 +3°C° 0 mm 1 m/s 726 mmHg 93%
    06:00 +3°C° 0 mm 1 m/s 726 mmHg 93%
    07:00 +3°C° 0 mm 1 m/s 726 mmHg 92%
    08:00 +3°C° 0 mm 1 m/s 726 mmHg 91%
    09:00 +3°C° 0 mm 1 m/s 726 mmHg 90%
    10:00 +4°C° 0 mm 1 m/s 726 mmHg 87%
    11:00 +3°C° 0 mm 2 m/s 725 mmHg 84%
    12:00 +3°C° 0 mm 2 m/s 725 mmHg 82%
    13:00 +3°C° 0.1 mm 2 m/s 724 mmHg 81%
    14:00 +2°C° 0.1 mm 3 m/s 724 mmHg 81%
    15:00 +1°C° 0.1 mm 3 m/s 723 mmHg 80%
    16:00 +1°C° 0.1 mm 3 m/s 723 mmHg 81%
    17:00 +1°C° 0.1 mm 3 m/s 723 mmHg 82%
    18:00 0°C° 0.1 mm 3 m/s 723 mmHg 83%
    19:00 0°C° 0.3 mm 3 m/s 723 mmHg 85%
    20:00 -1°C° 0.3 mm 3 m/s 722 mmHg 87%
    21:00 -1°C° 0.3 mm 3 m/s 722 mmHg 89%
    22:00 -2°C° 0.5 mm 2 m/s 722 mmHg 90%
    23:00 -2°C° 0.5 mm 2 m/s 721 mmHg 91%
    Arată mai mult